Regional Weather Roundup
Issued by NWS

Home | Current Version | Previous Version | Text Only | Print | Product List | Glossary Off
Versions: 1 2 3 4 5 6 7 8 9 10 11 12 13 14 15 16 17 18 19 20 21 22 23 24 25 26 27 28 29 30 31 32 33 34 35 36 37 38 39 40 41 42 43 44 45 46 47 48 49 50

000
ASUS43 KBIS 041602
RWRND

NORTH DAKOTA REGIONAL WEATHER ROUNDUP
NATIONAL WEATHER SERVICE BISMARCK ND
1100 AM CDT FRI SEP 04 2015

NOTE: "FAIR" INDICATES FEW OR NO CLOUDS BELOW 12,000 FEET WITH NO
SIGNIFICANT WEATHER AND/OR OBSTRUCTIONS TO VISIBILITY.


NDZ001>003-009>011-017-041700-
NORTHWEST NORTH DAKOTA

CITY           SKY/WX    TMP DP  RH WIND       PRES   REMARKS
WILLISTON      CLOUDY    64  53  67 N17       29.88R
MINOT          CLOUDY    67  58  72 N10       29.83R
MINOT AFB      CLOUDY    68  63  83 N15       29.81R
$$

NDZ018>021-031>035-040>046-041700-
SOUTHWEST NORTH DAKOTA

CITY           SKY/WX    TMP DP  RH WIND       PRES   REMARKS
BISMARCK       CLOUDY    76  71  85 CALM      29.76R
DICKINSON      CLOUDY    67  63  87 N3        29.83R
GARRISON         N/A     70  63  78 N16G23    29.81R
HETTINGER ARPT PTSUNNY   73  62  68 N12       29.81S
$$

NDZ004>008-012>016-024-026-027-054-041700-
NORTHEAST NORTH DAKOTA

CITY           SKY/WX    TMP DP  RH WIND       PRES   REMARKS
GRAND FORKS    CLOUDY    77  71  82 S8        29.76S
GRND FRKS AFB  CLOUDY    76  72  86 SE8       29.77S
DEVILS LAKE    CLOUDY    75  68  78 SE7       29.76R
$$

NDZ022-023-025-028>030-036>039-047>053-041700-
SOUTHEAST NORTH DAKOTA

CITY           SKY/WX    TMP DP  RH WIND       PRES   REMARKS
FARGO          PTSUNNY   82  71  69 S18G24    29.78R
JAMESTOWN      CLOUDY    75  69  81 SW15      29.77S
$$




USA.gov is the U.S. government's official web portal to all federal, state and local government web resources and services.